EW1275 Weather Reports


time (UTC)temp
C
wind
direction
speed
KPH
gust
KPH
rain 1hr
cm
rain 24hr
cm
rain mn
cm
humidity
%
barometer
mb
20260904102323 16 130 1.6 3.2 0.00 0.00 0.00 86 1011.7
20260904101829 16 132 1.6 3.2 0.00 0.00 0.00 86 1011.8
20260904101340 16 132 3.2 3.2 0.00 0.00 0.00 86 1011.8
20260904100825 16 132 3.2 3.2 0.00 0.00 0.00 86 1011.7
20260904100333 16 133 1.6 3.2 0.00 0.00 0.00 86 1011.7
20260904095840 16 132 1.6 3.2 0.00 0.00 0.00 86 1011.7
20260904095347 16 132 3.2 3.2 0.00 0.00 0.00 86 1011.7
20260904094834 16 132 1.6 3.2 0.00 0.00 0.00 86 1011.8
20260904094339 16 133 3.2 3.2 0.00 0.00 0.00 86 1011.8
20260904093833 16 132 1.6 3.2 0.00 0.00 0.00 86 1011.7
20260904093340 16 132 3.2 4.8 0.00 0.00 0.00 86 1011.7
20260904092825 16 127 3.2 4.8 0.00 0.00 0.00 86 1011.7
20260904092332 16 126 3.2 4.8 0.00 0.00 0.00 86 1011.7
20260904091822 16 130 4.8 6.4 0.00 0.00 0.00 86 1011.7
20260904091332 16 133 4.8 6.4 0.00 0.00 0.00 86 1011.7
20260904090818 16 122 3.2 4.8 0.00 0.00 0.00 85 1011.7
20260904090330 16 119 3.2 4.8 0.00 0.00 0.00 85 1011.7
20260904085819 16 116 3.2 4.8 0.00 0.00 0.00 85 1011.7
20260904085333 16 109 3.2 4.8 0.00 0.00 0.00 85 1011.7
20260904084820 17 104 3.2 4.8 0.00 0.00 0.00 85 1011.8
20260904084327 17 112 3.2 4.8 0.00 0.00 0.00 84 1011.9
20260904083834 17 114 3.2 3.2 0.00 0.00 0.00 84 1011.9
20260904083344 17 114 3.2 3.2 0.00 0.00 0.00 84 1011.9
20260904082830 17 114 1.6 4.8 0.00 0.00 0.00 83 1011.9
20260904082320 18 103 3.2 4.8 0.00 0.00 0.00 82 1011.9
20260904081827 18 82 1.6 4.8 0.00 0.00 0.00 82 1011.9
20260904081333 18 53 1.6 4.8 0.00 0.00 0.00 82 1012.0
20260904080819 19 345 0.0 6.4 0.00 0.00 0.00 82 1012.1
20260904080333 19 347 1.6 8.0 0.00 0.00 0.00 82 1012.1
20260904075839 19 328 3.2 8.0 0.00 0.00 0.00 82 1012.2
20260904075326 19 332 1.6 11.3 0.00 0.00 0.00 82 1012.2
20260904074832 19 27 4.8 11.3 0.00 0.00 0.00 82 1012.2
20260904074338 19 329 4.8 12.9 0.00 0.00 0.00 82 1012.2
20260904073825 19 315 9.7 12.9 0.00 0.00 0.00 83 1012.3
20260904073355 19 317 8.0 12.9 0.00 0.00 0.00 83 1012.3
20260904072824 19 306 6.4 12.9 0.00 0.00 0.00 83 1012.3
20260904072351 19 318 6.4 12.9 0.00 0.00 0.00 84 1012.2
20260904071821 18 5 6.4 11.3 0.00 0.00 0.00 84 1012.2
20260904071329 18 322 1.6 6.4 0.00 0.00 0.00 84 1012.2
20260904070822 18 323 0.0 3.2 0.00 0.00 0.00 84 1012.2
20260904070329 18 111 1.6 3.2 0.00 0.00 0.00 83 1012.3
20260904065857 18 94 1.6 3.2 0.00 0.00 0.00 82 1012.2
20260904065322 18 94 0.0 3.2 0.00 0.00 0.00 82 1012.1
20260904064830 18 94 0.0 3.2 0.00 0.00 0.00 82 1012.1
20260904064339 18 94 0.0 3.2 0.00 0.00 0.00 81 1012.1
20260904063824 19 94 0.0 3.2 0.00 0.00 0.00 80 1012.0
20260904063331 20 342 0.0 4.8 0.00 0.00 0.00 81 1012.1
20260904062820 20 338 1.6 6.4 0.00 0.00 0.00 81 1012.1
20260904062330 20 40 1.6 9.7 0.00 0.00 0.00 81 1012.0
20260904061820 20 325 4.8 12.9 0.00 0.00 0.00 81 1011.9
20260904061327 20 30 1.6 8.0 0.00 0.00 0.00 81 1012.0
20260904060835 20 67 1.6 9.7 0.00 0.00 0.00 80 1012.0
20260904060322 20 340 1.6 8.0 0.00 0.00 0.00 80 1012.0
20260904055831 20 39 3.2 8.0 0.00 0.00 0.00 80 1012.0
20260904055320 20 13 1.6 8.0 0.00 0.00 0.00 80 1012.0
20260904054826 20 14 1.6 8.0 0.00 0.00 0.00 80 1012.1
20260904054337 20 90 4.8 9.7 0.00 0.00 0.00 80 1012.1
20260904053825 20 44 3.2 9.7 0.00 0.00 0.00 80 1012.1
20260904053340 20 330 3.2 9.7 0.00 0.00 0.00 80 1012.1
20260904052826 20 5 4.8 9.7 0.00 0.00 0.00 80 1012.1
20260904052335 20 333 4.8 11.3 0.00 0.00 0.00 80 1012.1
20260904051824 20 17 3.2 9.7 0.00 0.00 0.00 81 1012.0
20260904051331 20 34 1.6 8.0 0.00 0.00 0.00 81 1012.1
20260904050821 20 5 3.2 11.3 0.00 0.00 0.00 81 1012.1
20260904050330 20 45 4.8 11.3 0.00 0.00 0.00 81 1012.1
20260904045838 20 9 3.2 8.0 0.00 0.00 0.00 81 1012.1
20260904045344 20 282 3.2 8.0 0.00 0.00 0.00 81 1012.1
20260904044829 20 350 4.8 8.0 0.00 0.00 0.00 80 1012.1
20260904044323 20 17 3.2 6.4 0.00 0.00 0.00 80 1012.2
20260904043833 20 360 3.2 6.4 0.00 0.00 0.00 80 1012.2
20260904043319 20 5 1.6 11.3 0.00 0.00 0.00 79 1012.2
20260904042829 20 68 1.6 11.3 0.00 0.00 0.00 79 1012.2
20260904042335 20 52 8.0 11.3 0.00 0.00 0.00 79 1012.2
20260904041842 20 15 3.2 9.7 0.00 0.00 0.00 79 1012.2
20260904041330 20 12 0.0 6.4 0.00 0.00 0.00 79 1012.2
20260904040836 20 51 1.6 6.4 0.00 0.00 0.00 79 1012.3
20260904040321 20 46 3.2 8.0 0.00 0.00 0.00 79 1012.2
20260904035829 20 323 3.2 9.7 0.00 0.00 0.00 79 1012.2
20260904035320 20 336 3.2 16.1 0.00 0.00 0.00 79 1012.1
20260904034830 20 347 4.8 16.1 0.00 0.00 0.00 79 1012.0
20260904034356 20 324 4.8 14.5 0.00 0.00 0.00 79 1012.0
20260904033820 20 84 4.8 16.1 0.00 0.00 0.00 79 1011.9
20260904033328 20 17 4.8 14.5 0.00 0.00 0.00 80 1011.9
20260904032838 20 22 6.4 14.5 0.00 0.00 0.00 79 1011.9
20260904032322 20 76 6.4 16.1 0.00 0.00 0.00 80 1011.9
20260904031830 20 246 6.4 14.5 0.00 0.00 0.00 80 1011.9
20260904031337 20 306 4.8 14.5 0.00 0.00 0.00 79 1011.9
20260904030822 20 9 4.8 12.9 0.00 0.00 0.00 79 1011.8
20260904030329 20 111 4.8 12.9 0.00 0.00 0.00 79 1011.8
20260904025822 21 43 4.8 12.9 0.00 0.00 0.00 79 1011.7
20260904025330 21 237 4.8 16.1 0.00 0.00 0.00 79 1011.6
20260904024835 20 355 4.8 16.1 0.00 0.00 0.00 78 1011.7
20260904024323 21 153 4.8 12.9 0.00 0.00 0.00 79 1011.7
20260904023830 21 293 4.8 12.9 0.00 0.00 0.00 78 1011.7
20260904023319 21 252 4.8 14.5 0.00 0.00 0.00 78 1011.7
20260904022828 21 5 4.8 14.5 0.00 0.00 0.00 78 1011.7
20260904022317 21 77 4.8 16.1 0.00 0.00 0.00 78 1011.6
20260904021827 21 178 6.4 16.1 0.00 0.00 0.00 78 1011.7
20260904021317 21 133 4.8 16.1 0.00 0.00 0.00 77 1011.7
20260904020826 21 114 6.4 16.1 0.00 0.00 0.00 77 1011.7
20260904020333 21 180 4.8 14.5 0.00 0.00 0.00 77 1011.7
20260904015840 21 349 6.4 16.1 0.00 0.00 0.00 76 1011.7
20260904015328 21 296 4.8 16.1 0.00 0.00 0.00 76 1011.7
20260904014834 21 51 4.8 16.1 0.00 0.00 0.00 76 1011.8
20260904014323 22 350 6.4 17.7 0.00 0.00 0.00 76 1011.8
20260904013854 22 344 9.7 17.7 0.00 0.00 0.00 75 1011.8
20260904013322 22 323 4.8 14.5 0.00 0.00 0.00 75 1011.9
20260904012829 22 292 6.4 17.7 0.00 0.00 0.00 74 1011.9
20260904012336 22 20 4.8 19.3 0.00 0.00 0.00 74 1011.9
20260904011824 22 336 11.3 22.5 0.00 0.00 0.00 74 1011.9
20260904011330 22 319 11.3 24.1 0.00 0.00 0.00 74 1011.9
20260904010840 22 313 11.3 24.1 0.00 0.00 0.00 73 1012.0
20260904010325 22 341 6.4 22.5 0.00 0.00 0.00 74 1012.0
20260904005832 22 331 12.9 22.5 0.00 0.00 0.00 74 1012.0
20260904005317 22 30 11.3 22.5 0.00 0.00 0.00 73 1012.0
20260904004828 22 360 11.3 22.5 0.00 0.00 0.00 73 1011.9
20260904004353 23 49 12.9 22.5 0.00 0.00 0.00 73 1011.9
20260904003840 23 321 12.9 24.1 0.00 0.00 0.00 73 1011.9
20260904003347 23 355 12.9 24.1 0.00 0.00 0.00 72 1011.9
20260904002854 23 313 11.3 20.9 0.00 0.00 0.00 72 1012.0
20260904002319 23 346 11.3 20.9 0.00 0.00 0.00 71 1011.9
20260904001850 23 325 9.7 22.5 0.00 0.00 0.00 72 1012.0
20260904001320 23 17 11.3 22.5 0.00 0.00 0.00 72 1012.0
20260904000826 23 327 12.9 20.9 0.00 0.00 0.00 71 1012.0
20260904000333 23 5 12.9 24.1 0.00 0.00 0.00 71 1011.9
20260903235819 23 329 16.1 24.1 0.00 0.00 0.00 70 1011.8
20260903235326 23 286 8.0 20.9 0.00 0.00 0.00 71 1011.9
20260903234835 23 326 14.5 20.9 0.00 0.00 0.00 71 1012.0
20260903234323 23 323 14.5 20.9 0.00 0.00 0.00 71 1012.0
20260903233832 23 290 12.9 20.9 0.00 0.00 0.00 70 1012.1
20260903233319 23 314 9.7 20.9 0.00 0.00 0.00 71 1012.0
20260903232833 23 11 14.5 22.5 0.00 0.00 0.00 71 1012.2
20260903232343 23 313 12.9 22.5 0.00 0.00 0.00 72 1012.2
20260903231848 23 321 17.7 22.5 0.00 0.00 0.00 71 1012.3
20260903231333 23 300 11.3 24.1 0.00 0.00 0.00 72 1012.3
20260903230818 23 303 17.7 25.7 0.00 0.00 0.00 72 1012.3
20260903230327 23 312 16.1 24.1 0.00 0.00 0.00 72 1012.3
20260903225832 23 342 17.7 24.1 0.00 0.00 0.00 72 1012.4
20260903225319 23 323 17.7 27.4 0.00 0.00 0.00 72 1012.3
20260903224825 23 355 19.3 29.0 0.00 0.00 0.00 72 1012.3
20260903224335 23 324 19.3 29.0 0.00 0.00 0.00 72 1012.4
20260903223824 23 310 19.3 27.4 0.00 0.00 0.00 72 1012.4
20260903223338 23 308 17.7 25.7 0.00 0.00 0.00 72 1012.5
20260903222824 23 334 19.3 25.7 0.00 0.00 0.00 72 1012.6
20260903222331 24 326 16.1 25.7 0.00 0.00 0.00 72 1012.5
20260903221838 24 319 17.7 25.7 0.00 0.00 0.00 71 1012.6
20260903221324 24 19 17.7 25.7 0.00 0.00 0.00 72 1012.6
20260903220317 24 286 14.5 22.5 0.00 0.00 0.00 72 1012.5
20260903215826 24 294 14.5 25.7 0.00 0.00 0.00 70 1012.6
20260903215334 25 44 12.9 25.7 0.00 0.00 0.00 71 1012.7
20260903214825 25 318 16.1 24.1 0.00 0.00 0.00 70 1012.7
20260903214330 25 342 11.3 19.3 0.00 0.00 0.00 68 1012.8
20260903213837 25 22 11.3 20.9 0.00 0.00 0.00 69 1012.8
20260903213323 25 59 12.9 20.9 0.00 0.00 0.00 69 1012.9
20260903212832 25 43 9.7 20.9 0.00 0.00 0.00 69 1012.8
20260903212322 25 296 9.7 19.3 0.00 0.00 0.00 70 1012.9
20260903211831 26 325 8.0 20.9 0.00 0.00 0.00 70 1012.9
20260903211316 25 279 11.3 20.9 0.00 0.00 0.00 71 1012.9
20260903210826 25 339 11.3 19.3 0.00 0.00 0.00 69 1013.0
20260903210332 25 337 9.7 20.9 0.00 0.00 0.00 70 1013.0
20260903205823 25 307 11.3 22.5 0.00 0.00 0.00 72 1012.9
20260903205331 25 335 14.5 20.9 0.00 0.00 0.00 72 1012.9
20260903204837 25 308 14.5 20.9 0.00 0.00 0.00 71 1012.9
20260903204325 25 315 14.5 20.9 0.00 0.00 0.00 69 1013.0
20260903203852 26 309 11.3 20.9 0.00 0.00 0.00 68 1013.0
20260903203320 26 277 6.4 20.9 0.00 0.00 0.00 68 1013.0
20260903202830 26 319 8.0 19.3 0.00 0.00 0.00 68 1013.1
20260903202317 26 19 6.4 19.3 0.00 0.00 0.00 69 1013.1
20260903201829 26 288 4.8 19.3 0.00 0.00 0.00 69 1013.2
20260903201318 25 336 8.0 19.3 0.00 0.00 0.00 70 1013.2
20260903200828 25 17 8.0 16.1 0.00 0.00 0.00 70 1013.3
20260903200333 25 321 8.0 22.5 0.00 0.00 0.00 73 1013.3
20260903195820 24 330 16.1 22.5 0.00 0.00 0.00 73 1013.2
20260903195327 24 326 16.1 22.5 0.00 0.00 0.00 74 1013.3
20260903194837 24 312 14.5 22.5 0.00 0.00 0.00 74 1013.3
20260903194319 24 329 14.5 22.5 0.00 0.00 0.00 74 1013.3
20260903193849 23 45 14.5 20.9 0.00 0.00 0.00 74 1013.3
20260903193317 24 331 16.1 19.3 0.00 0.00 0.00 74 1013.4
20260903192828 24 317 12.9 19.3 0.00 0.00 0.00 74 1013.4
20260903192334 24 317 12.9 17.7 0.00 0.00 0.00 73 1013.6
20260903191846 24 318 14.5 17.7 0.00 0.00 0.00 73 1013.7
20260903191332 24 331 9.7 16.1 0.00 0.00 0.00 73 1013.7
20260903190818 24 335 8.0 16.1 0.00 0.00 0.00 74 1013.7
20260903190328 24 309 11.3 16.1 0.00 0.00 0.00 72 1013.7
20260903185834 25 332 6.4 16.1 0.00 0.00 0.00 73 1013.7
20260903185341 24 337 11.3 17.7 0.00 0.00 0.00 72 1013.7
20260903184827 24 5 9.7 19.3 0.00 0.00 0.00 73 1013.8
20260903184317 23 317 9.7 20.9 0.00 0.00 0.00 74 1013.8
20260903183826 24 323 11.3 20.9 0.00 0.00 0.00 72 1013.8
20260903183334 24 55 11.3 19.3 0.00 0.00 0.00 71 1013.9
20260903182824 24 336 9.7 17.7 0.00 0.00 0.00 70 1013.9
20260903182331 24 311 8.0 22.5 0.00 0.00 0.00 71 1014.0
20260903181821 23 327 16.1 22.5 0.00 0.00 0.00 72 1014.0
20260903181330 24 336 9.7 19.3 0.00 0.00 0.00 72 1014.0
20260903180817 23 323 9.7 20.9 0.00 0.00 0.00 71 1014.0
20260903180326 24 324 12.9 20.9 0.00 0.00 0.00 71 1014.1
20260903175831 24 355 8.0 16.1 0.00 0.00 0.00 71 1014.1
20260903175318 24 350 8.0 16.1 0.00 0.00 0.00 70 1014.1
20260903174825 24 315 6.4 16.1 0.00 0.00 0.00 70 1014.3
20260903174353 24 309 6.4 16.1 0.00 0.00 0.00 70 1014.3
20260903173823 24 13 4.8 11.3 0.00 0.00 0.00 71 1014.3
20260903173331 25 333 3.2 14.5 0.00 0.00 0.00 69 1014.2
20260903172820 23 159 6.4 17.7 0.00 0.00 0.00 72 1014.1
20260903172329 23 312 8.0 17.7 0.00 0.00 0.00 74 1014.0
20260903171837 23 319 9.7 14.5 0.00 0.00 0.00 72 1014.1
20260903171323 22 331 6.4 12.9 0.00 0.00 0.00 75 1014.1
20260903170850 22 331 8.0 12.9 0.00 0.00 0.00 74 1014.1
20260903170339 22 310 8.0 12.9 0.00 0.00 0.00 74 1014.1
20260903165823 22 327 6.4 9.7 0.00 0.00 0.00 73 1014.0
20260903165328 21 339 4.8 8.0 0.00 0.00 0.00 73 1014.1
20260903164818 22 324 3.2 8.0 0.00 0.00 0.00 73 1014.1
20260903164348 22 360 3.2 9.7 0.00 0.00 0.00 72 1014.1
20260903163835 22 330 3.2 9.7 0.00 0.00 0.00 72 1014.0
20260903163345 22 355 3.2 8.0 0.00 0.00 0.00 72 1014.0
20260903162831 22 355 3.2 8.0 0.00 0.00 0.00 73 1014.0
20260903162337 22 19 1.6 6.4 0.00 0.00 0.00 72 1014.0
20260903161823 22 26 1.6 6.4 0.00 0.00 0.00 73 1014.0
20260903161332 21 360 1.6 6.4 0.00 0.00 0.00 74 1014.0
20260903160841 21 326 4.8 6.4 0.00 0.00 0.00 74 1014.0
20260903160352 21 10 1.6 4.8 0.00 0.00 0.00 75 1013.9
20260903155837 21 335 1.6 3.2 0.00 0.00 0.00 76 1013.9
20260903155323 21 13 0.0 1.6 0.00 0.00 0.00 75 1014.0
20260903154829 21 15 0.0 3.2 0.00 0.00 0.00 75 1013.9
20260903154323 21 22 0.0 4.8 0.00 0.00 0.00 76 1013.9
20260903153830 21 25 1.6 4.8 0.00 0.00 0.00 76 1014.0
20260903153336 20 34 0.0 4.8 0.00 0.00 0.00 77 1013.9
20260903152823 20 108 1.6 4.8 0.00 0.00 0.00 77 1014.0
20260903152329 20 143 1.6 6.4 0.00 0.00 0.00 78 1014.0
20260903151834 19 127 3.2 8.0 0.00 0.00 0.00 78 1014.0
20260903151325 18 128 4.8 6.4 0.00 0.00 0.00 78 1014.0
20260903150830 18 126 4.8 11.3 0.00 0.00 0.00 80 1014.0
20260903150341 18 117 6.4 11.3 0.00 0.00 0.00 80 1014.0
20260903145830 18 111 6.4 11.3 0.00 0.00 0.00 81 1014.0
20260903145319 17 127 9.7 11.3 0.00 0.00 0.00 81 1013.9
20260903144847 17 134 8.0 11.3 0.00 0.00 0.00 82 1013.9
20260903144336 17 139 6.4 9.7 0.00 0.00 0.00 83 1013.9
20260903143820 17 110 6.4 12.9 0.00 0.00 0.00 83 1013.9
20260903143326 17 126 6.4 12.9 0.00 0.00 0.00 84 1013.8
20260903142836 16 135 8.0 12.9 0.00 0.00 0.00 84 1013.8
20260903142323 16 139 6.4 11.3 0.00 0.00 0.00 85 1013.8
20260903141830 16 127 4.8 11.3 0.00 0.00 0.00 85 1013.7
20260903141337 16 143 6.4 11.3 0.00 0.00 0.00 85 1013.7
20260903140824 16 124 4.8 11.3 0.00 0.00 0.00 85 1013.7
20260903140337 15 132 8.0 11.3 0.00 0.00 0.00 86 1013.7
20260903135822 15 135 6.4 9.7 0.00 0.00 0.00 86 1013.6
20260903135349 15 141 6.4 9.7 0.00 0.00 0.00 86 1013.5
20260903134835 15 152 6.4 8.0 0.00 0.00 0.00 86 1013.5
20260903134322 15 121 6.4 8.0 0.00 0.00 0.00 86 1013.5
20260903133831 15 117 4.8 8.0 0.00 0.00 0.00 86 1013.5
20260903133337 15 117 4.8 12.9 0.00 0.00 0.00 86 1013.4
20260903132821 15 136 8.0 14.5 0.00 0.00 0.00 86 1013.4
20260903132331 15 134 8.0 12.9 0.00 0.00 0.00 86 1013.4
20260903131819 15 138 6.4 9.7 0.00 0.00 0.00 86 1013.4
20260903131330 15 135 4.8 9.7 0.00 0.00 0.00 86 1013.4
20260903130836 15 144 6.4 11.3 0.00 0.00 0.00 87 1013.4
20260903130342 15 117 4.8 11.3 0.00 0.00 0.00 86 1013.4
20260903125848 15 142 6.4 9.7 0.00 0.00 0.00 87 1013.3
20260903125337 15 140 6.4 9.7 0.00 0.00 0.00 87 1013.4
20260903124824 15 155 6.4 9.7 0.00 0.00 0.00 87 1013.4
20260903124336 15 150 8.0 9.7 0.00 0.00 0.00 87 1013.3
20260903123821 15 144 6.4 9.7 0.00 0.00 0.00 87 1013.4
20260903123330 15 150 4.8 8.0 0.00 0.00 0.00 87 1013.4
20260903122818 15 152 4.8 6.4 0.00 0.00 0.00 87 1013.4
20260903122328 15 157 4.8 6.4 0.00 0.00 0.00 87 1013.4
20260903121817 15 152 4.8 8.0 0.00 0.00 0.00 87 1013.3
20260903121327 15 158 4.8 8.0 0.00 0.00 0.00 86 1013.4
20260903120833 15 150 4.8 8.0 0.00 0.00 0.00 87 1013.4
20260903120319 15 148 4.8 8.0 0.00 0.00 0.00 86 1013.4
20260903115824 15 150 4.8 8.0 0.00 0.00 0.00 87 1013.2
20260903115335 15 141 3.2 4.8 0.00 0.00 0.00 87 1013.2
20260903114822 16 139 3.2 6.4 0.00 0.00 0.00 87 1013.2
20260903114348 16 119 3.2 6.4 0.00 0.00 0.00 87 1013.2
20260903113833 16 141 4.8 6.4 0.00 0.00 0.00 87 1013.2
20260903113323 16 144 4.8 6.4 0.00 0.00 0.00 87 1013.1
20260903112816 16 142 4.8 8.0 0.00 0.00 0.00 87 1013.1
20260903112325 16 132 4.8 8.0 0.00 0.00 0.00 86 1013.1
20260903111832 16 128 6.4 8.0 0.00 0.00 0.00 86 1013.1
20260903111322 16 126 4.8 8.0 0.00 0.00 0.00 86 1013.1
20260903110850 16 115 4.8 6.4 0.00 0.00 0.00 87 1013.1
20260903110319 16 121 4.8 6.4 0.00 0.00 0.00 87 1013.1
20260903105847 16 125 4.8 4.8 0.00 0.00 0.00 87 1013.1
20260903105331 16 127 3.2 4.8 0.00 0.00 0.00 87 1013.1
20260903104839 16 136 3.2 6.4 0.00 0.00 0.00 87 1013.2
20260903104324 16 132 4.8 6.4 0.00 0.00 0.00 87 1013.2
20260903103833 16 139 4.8 6.4 0.00 0.00 0.00 87 1013.2
20260903103323 16 117 4.8 6.4 0.00 0.00 0.00 87 1013.3
20260903102830 16 126 4.8 6.4 0.00 0.00 0.00 87 1013.3